[[{"header":{"parameterUnit":"m.s-1","parameterCategory":1,"la1":30.2991,"la2":30.254,"lo1":-89.0895,"lo2":-89.0444,"dy":0.0017,"dx":0.0017,"nx":28,"ny":28,"refTime":"2023-09-12T09:00:00:Z","depth":0,"parameterNumber":2,"parameterNumberName":"U-component_of_WINDS"},"data":[0,0,0,0,0,0,0,0,0,0,0,0,0,0,0,0,0,0,0,0,0,0,0,0,0,0,0,0,0,0,0,0,0,0,0,0,0,0,0,0,0,0,0,0,0,0,0,0,0,0,0,0,0,0,0,0,0,0,-0.4251,-0.4251,0,-0.4232,-0.4232,-0.4231,-0.4192,-0.4192,-0.4191,-0.419,-0.4171,-0.4171,-0.4171,0,0,0,0,0,0,0,0,0,0,0,0,0,-0.4253,-0.4253,-0.4251,-0.4251,-0.425,-0.4232,-0.4232,-0.4231,-0.4193,-0.4192,-0.4191,-0.419,-0.4171,-0.4171,-0.4171,0,0,0,0,0,0,0,0,0,0,0,0,0,-0.4245,-0.4253,-0.4251,-0.4229,-0.4227,-0.4232,-0.4232,-0.4231,-0.4193,-0.4192,-0.419,-0.4189,-0.4171,-0.4171,-0.4171,-0.4197,0,0,-0.4172,-0.4172,0,0,0,0,0,0,0,0,-0.4245,-0.4245,-0.4232,-0.423,-0.4228,-0.4213,-0.4225,-0.422,-0.4193,-0.4206,-0.419,-0.4189,-0.4186,-0.4185,-0.4184,-0.4196,-0.4195,-0.4172,-0.4173,-0.4173,-0.4173,0,0,0,0,0,0,0,-0.4246,-0.4246,-0.4243,-0.4232,-0.423,-0.422,-0.4217,-0.4224,-0.4203,-0.4204,-0.4202,-0.42,-0.4185,-0.4184,-0.4183,-0.4195,-0.4172,-0.4173,-0.4173,-0.4173,-0.4225,-0.4226,0,0,0,0,0,0,-0.425,-0.4246,-0.4244,-0.4243,-0.4234,-0.4221,-0.4218,-0.4219,-0.4202,-0.4199,-0.4201,-0.4198,-0.4184,-0.4183,-0.4182,-0.4211,-0.4173,-0.4173,-0.4173,-0.4224,-0.4226,-0.4227,0,0,0,0,0,0,-0.425,-0.425,-0.4245,-0.4244,-0.4242,-0.4222,-0.4224,-0.4219,-0.4219,-0.42,-0.4196,-0.4204,-0.4183,-0.4182,-0.4193,-0.421,-0.4173,-0.4173,-0.4223,-0.4225,-0.4226,-0.4268,0,0,0,0,0,0,-0.425,-0.425,-0.426,-0.4244,-0.4242,-0.4256,-0.4225,-0.422,-0.4219,-0.4215,-0.4202,-0.4198,-0.4182,-0.4193,-0.4194,-0.421,-0.4174,-0.4221,-0.4224,-0.4226,-0.4266,-0.4271,-0.4277,0,0,0,0,0,-0.4251,-0.4273,-0.4261,-0.4261,-0.4254,-0.4257,-0.4256,-0.4237,-0.4221,-0.423,-0.4218,-0.4199,-0.4207,-0.4194,-0.4195,-0.4211,-0.422,-0.4223,-0.4226,-0.4263,-0.427,-0.4276,0,0,0,0,0,0,-0.4292,-0.427,-0.4257,-0.4275,-0.4268,-0.4251,-0.4262,-0.4245,-0.4243,-0.424,-0.4216,-0.4213,-0.4228,-0.422,-0.4206,-0.4234,-0.4211,-0.4214,-0.4239,-0.4246,-0.4251,-0.4253,-0.4174,0,0,0,0,0,-0.4303,-0.4307,-0.4288,-0.4306,-0.4303,-0.4283,-0.4284,-0.4269,-0.4262,-0.4259,-0.4247,-0.424,-0.4241,-0.4243,-0.4243,-0.4263,-0.426,-0.4275,-0.428,-0.4285,-0.4288,-0.4298,-0.4305,-0.4236,-0.4236,-0.4236,0,0,-0.4326,-0.4315,-0.4319,-0.4314,-0.4307,-0.4312,-0.4281,-0.4288,-0.4292,-0.426,-0.427,-0.4261,-0.4252,-0.4268,-0.4274,-0.4262,-0.4306,-0.4288,-0.4292,-0.4293,-0.4302,-0.4308,-0.4314,-0.4238,-0.4237,-0.4237,0,0,-0.4371,-0.4363,-0.4377,-0.437,-0.436,-0.4346,-0.435,-0.4334,-0.4327,-0.4337,-0.4313,-0.4316,-0.4319,-0.4313,-0.4311,-0.4352,-0.4334,-0.4352,-0.4382,-0.4392,-0.4398,-0.4402,-0.4418,-0.4423,-0.4355,-0.4355,-0.4355,0,-0.4402,-0.4408,-0.4386,-0.4394,-0.4392,-0.4363,-0.4377,-0.4371,-0.4362,-0.4361,-0.4347,-0.4349,-0.4341,-0.4355,-0.4365,-0.4364,-0.4367,-0.4355,-0.4399,-0.4403,-0.4407,-0.4422,-0.4427,-0.4358,-0.4357,-0.4357,-0.4357,0,-0.4446,-0.4451,-0.4464,-0.4455,-0.4454,-0.4465,-0.4444,-0.4446,-0.4431,-0.4419,-0.4428,-0.4417,-0.4414,-0.4416,-0.4401,-0.4428,-0.4421,-0.4403,-0.4379,-0.4417,-0.443,-0.4435,-0.4361,-0.436,-0.436,-0.4359,0,0,-0.4519,-0.4497,-0.4502,-0.4497,-0.4483,-0.4487,-0.4495,-0.4492,-0.4495,-0.4488,-0.4496,-0.4497,-0.4481,-0.4478,-0.4462,-0.4471,-0.4504,-0.4452,-0.4451,-0.4463,-0.4533,-0.4548,-0.4555,-0.4492,-0.4493,-0.4493,-0.4535,0,-0.4563,-0.4578,-0.4557,-0.4576,-0.4581,-0.4551,-0.4559,-0.4551,-0.4539,-0.4541,-0.4527,-0.453,-0.4507,-0.4505,-0.4512,-0.4499,-0.4519,-0.4495,-0.4499,-0.4499,-0.4504,-0.4562,-0.4577,-0.4617,-0.4539,-0.454,-0.4541,0,-0.4616,-0.4612,-0.4632,-0.4615,-0.4616,-0.4624,-0.4619,-0.4621,-0.461,-0.4601,-0.4597,-0.4578,-0.4585,-0.456,-0.457,-0.4555,-0.4555,-0.4548,-0.4549,-0.455,-0.4524,-0.4566,-0.4629,-0.4636,-0.4549,-0.4548,-0.4547,0,-0.4669,-0.4668,-0.468,-0.4676,-0.4657,-0.4663,-0.4656,-0.4644,-0.4643,-0.4638,-0.4638,-0.4634,-0.4632,-0.4629,-0.4609,-0.4593,-0.4622,-0.4595,-0.4614,-0.4615,-0.4624,-0.4624,-0.469,-0.4621,-0.4621,-0.4621,-0.462,0,-0.472,-0.4734,-0.4703,-0.4711,-0.4725,-0.47,-0.4714,-0.4703,-0.4693,-0.4698,-0.4671,-0.4676,-0.4649,-0.4651,-0.4635,-0.4645,-0.4644,-0.4637,-0.4633,-0.4641,-0.4642,-0.4642,-0.4639,-0.4622,-0.4622,-0.4621,-0.4621,0,-0.4783,-0.4763,-0.4774,-0.4754,-0.4749,-0.4761,-0.4744,-0.475,-0.4735,-0.4741,-0.4741,-0.4719,-0.4719,-0.4698,-0.4695,-0.4684,-0.4702,-0.4692,-0.4706,-0.4703,-0.4724,-0.4723,-0.4794,-0.4802,-0.4727,-0.4727,-0.4728,0,-0.4818,-0.4828,-0.4809,-0.481,-0.4804,-0.4806,-0.4805,-0.478,-0.4779,-0.4767,-0.4775,-0.4773,-0.477,-0.4772,-0.4755,-0.4752,-0.4743,-0.4768,-0.4742,-0.475,-0.4745,-0.4745,-0.4746,-0.4774,-0.4775,-0.4776,-0.4776,0,-0.4884,-0.4873,-0.4872,-0.4867,-0.4866,-0.4862,-0.4855,-0.4857,-0.483,-0.4831,-0.4831,-0.4829,-0.4824,-0.4823,-0.4816,-0.4807,-0.4788,-0.4784,-0.4788,-0.4797,-0.4805,-0.4802,-0.4722,-0.4783,-0.4782,-0.4782,-0.4781,-0.4781,-0.4935,-0.4942,-0.493,-0.4929,-0.4921,-0.4916,-0.492,-0.4906,-0.4905,-0.49,-0.4884,-0.4887,-0.4875,-0.4864,-0.4857,-0.4858,-0.4846,-0.4852,-0.4854,-0.4857,-0.4861,-0.4803,-0.4857,-0.4856,-0.4856,-0.4856,-0.4856,0,-0.5,-0.499,-0.499,-0.4981,-0.4981,-0.4961,-0.4952,-0.4953,-0.4956,-0.4946,-0.4944,-0.4943,-0.4941,-0.4923,-0.4919,-0.4923,-0.4914,-0.4923,-0.4924,-0.4922,-0.4872,-0.4869,-0.4931,-0.4931,-0.4931,-0.4931,-0.4931,-0.4931,-0.5034,-0.5046,-0.5033,-0.504,-0.5029,-0.5032,-0.5028,-0.5023,-0.5015,-0.5015,-0.5014,-0.5001,-0.4988,-0.4983,-0.498,-0.4974,-0.4975,-0.4987,-0.4979,-0.4933,-0.4926,-0.4919,-0.4916,-0.4987,-0.4987,-0.503,-0.503,-0.503]},{"header":{"parameterUnit":"m.s-1","parameterCategory":1,"la1":30.2991,"la2":30.254,"lo1":-89.0895,"lo2":-89.0444,"dy":0.0017,"dx":0.0017,"nx":28,"ny":28,"refTime":"2023-09-12T09:00:00:Z","depth":0,"parameterNumber":3,"parameterNumberName":"V-component_of_WINDS"},"data":[0,0,0,0,0,0,0,0,0,0,0,0,0,0,0,0,0,0,0,0,0,0,0,0,0,0,0,0,0,0,0,0,0,0,0,0,0,0,0,0,0,0,0,0,0,0,0,0,0,0,0,0,0,0,0,0,0,0,-2.3415,-2.3415,0,-2.3445,-2.3445,-2.3446,-2.3424,-2.3423,-2.3422,-2.3421,-2.3449,-2.345,-2.3452,0,0,0,0,0,0,0,0,0,0,0,0,0,-2.3335,-2.3337,-2.3415,-2.3415,-2.3416,-2.3445,-2.3445,-2.3446,-2.3424,-2.3423,-2.3422,-2.342,-2.3448,-2.345,-2.3452,0,0,0,0,0,0,0,0,0,0,0,0,0,-2.3368,-2.3337,-2.3415,-2.3408,-2.3408,-2.3445,-2.3445,-2.3446,-2.3424,-2.3423,-2.3421,-2.342,-2.3448,-2.345,-2.3452,-2.3496,0,0,-2.346,-2.3461,0,0,0,0,0,0,0,0,-2.3366,-2.3371,-2.3409,-2.3409,-2.3409,-2.3429,-2.3428,-2.3463,-2.3425,-2.3418,-2.3421,-2.3419,-2.3443,-2.3446,-2.3455,-2.3498,-2.3499,-2.346,-2.3462,-2.3463,-2.3463,0,0,0,0,0,0,0,-2.3364,-2.3369,-2.3427,-2.3409,-2.3409,-2.3403,-2.3406,-2.3434,-2.3438,-2.3418,-2.3417,-2.3421,-2.3443,-2.3452,-2.3455,-2.3499,-2.346,-2.3462,-2.3464,-2.3465,-2.3579,-2.3581,0,0,0,0,0,0,-2.3363,-2.3368,-2.3426,-2.3428,-2.3384,-2.3406,-2.3409,-2.3424,-2.3438,-2.3439,-2.3422,-2.342,-2.3449,-2.3452,-2.3456,-2.3508,-2.3463,-2.3465,-2.3466,-2.3578,-2.358,-2.3581,0,0,0,0,0,0,-2.3361,-2.3368,-2.3425,-2.3397,-2.3404,-2.3408,-2.3426,-2.3425,-2.3435,-2.3441,-2.3441,-2.3431,-2.3448,-2.3453,-2.3487,-2.3509,-2.3466,-2.3468,-2.3576,-2.3578,-2.3581,-2.3612,0,0,0,0,0,0,-2.3359,-2.3368,-2.3385,-2.3398,-2.3406,-2.3456,-2.3427,-2.3427,-2.344,-2.3437,-2.3449,-2.345,-2.3447,-2.3483,-2.3489,-2.3511,-2.347,-2.3574,-2.3577,-2.358,-2.3609,-2.3615,-2.3621,0,0,0,0,0,-2.3356,-2.3392,-2.3386,-2.3393,-2.3428,-2.3457,-2.3461,-2.3458,-2.3441,-2.3458,-2.3462,-2.345,-2.3506,-2.3487,-2.3493,-2.3516,-2.3573,-2.3576,-2.358,-2.3607,-2.3614,-2.3621,0,0,0,0,0,0,-2.338,-2.3394,-2.3387,-2.3429,-2.3442,-2.3453,-2.3474,-2.3466,-2.3483,-2.348,-2.3474,-2.3477,-2.3513,-2.3518,-2.3497,-2.356,-2.3536,-2.3541,-2.3555,-2.3562,-2.3567,-2.3565,-2.3472,0,0,0,0,0,-2.3391,-2.3415,-2.3425,-2.346,-2.3467,-2.347,-2.3482,-2.3479,-2.3492,-2.3497,-2.3503,-2.3516,-2.3536,-2.3549,-2.3568,-2.361,-2.3612,-2.363,-2.3635,-2.364,-2.3644,-2.3666,-2.3673,-2.3593,-2.3593,-2.3593,0,0,-2.3412,-2.3422,-2.3437,-2.3465,-2.3475,-2.3499,-2.3475,-2.3501,-2.3518,-2.3501,-2.3533,-2.3539,-2.3552,-2.359,-2.3607,-2.3595,-2.3667,-2.3644,-2.3648,-2.3649,-2.367,-2.3678,-2.3684,-2.3595,-2.3595,-2.3595,0,0,-2.3463,-2.3474,-2.3504,-2.3515,-2.3531,-2.3532,-2.354,-2.3552,-2.3555,-2.3588,-2.3576,-2.3596,-2.3631,-2.3641,-2.3651,-2.3706,-2.3695,-2.3712,-2.3742,-2.3763,-2.3769,-2.3775,-2.3793,-2.38,-2.3717,-2.3717,-2.3717,0,-2.3487,-2.3523,-2.3521,-2.3548,-2.356,-2.3547,-2.3577,-2.3588,-2.3608,-2.3617,-2.3604,-2.3648,-2.3656,-2.3696,-2.3709,-2.3718,-2.3725,-2.371,-2.3769,-2.3774,-2.3779,-2.3797,-2.3804,-2.3719,-2.3718,-2.3718,-2.3718,0,-2.3551,-2.3576,-2.3599,-2.3621,-2.3636,-2.3664,-2.3665,-2.368,-2.3676,-2.3679,-2.3712,-2.3721,-2.3742,-2.3751,-2.3747,-2.3791,-2.3783,-2.377,-2.3746,-2.3789,-2.3805,-2.3812,-2.3721,-2.3721,-2.372,-2.372,0,0,-2.3617,-2.3638,-2.3646,-2.3655,-2.3672,-2.3691,-2.3719,-2.374,-2.3753,-2.3768,-2.379,-2.382,-2.3808,-2.3819,-2.3816,-2.3835,-2.3877,-2.3819,-2.3819,-2.3828,-2.3924,-2.3933,-2.3941,-2.387,-2.3871,-2.3872,-2.3923,0,-2.3667,-2.3717,-2.3716,-2.3761,-2.3784,-2.3773,-2.3797,-2.3809,-2.3813,-2.3831,-2.3835,-2.3856,-2.3839,-2.3846,-2.3864,-2.3868,-2.3896,-2.3864,-2.3889,-2.389,-2.3885,-2.395,-2.396,-2.4007,-2.3929,-2.3931,-2.3931,0,-2.3733,-2.3751,-2.3799,-2.3813,-2.3822,-2.3844,-2.3863,-2.3882,-2.3895,-2.3897,-2.3909,-2.3903,-2.393,-2.3907,-2.3944,-2.3922,-2.3933,-2.3936,-2.3938,-2.3939,-2.3912,-2.3952,-2.4022,-2.4028,-2.3942,-2.3941,-2.394,0,-2.3774,-2.3811,-2.3844,-2.3853,-2.387,-2.3885,-2.3893,-2.3905,-2.3918,-2.3935,-2.3943,-2.3962,-2.3972,-2.3987,-2.3986,-2.3969,-2.4023,-2.3999,-2.4023,-2.4023,-2.4034,-2.4033,-2.4105,-2.4043,-2.4042,-2.4042,-2.4042,0,-2.383,-2.386,-2.3863,-2.3884,-2.3916,-2.3915,-2.3947,-2.3952,-2.3964,-2.3984,-2.3976,-2.3995,-2.3993,-2.4012,-2.4011,-2.4041,-2.4046,-2.4046,-2.4045,-2.4046,-2.4046,-2.4052,-2.4048,-2.4044,-2.4044,-2.4043,-2.4043,0,-2.3882,-2.3885,-2.3921,-2.3935,-2.3939,-2.3962,-2.3973,-2.3992,-2.3995,-2.4021,-2.4027,-2.4031,-2.4054,-2.4054,-2.4079,-2.4079,-2.4115,-2.4111,-2.411,-2.4109,-2.4132,-2.413,-2.421,-2.422,-2.4152,-2.4153,-2.4154,0,-2.3916,-2.3939,-2.3955,-2.3969,-2.3978,-2.4,-2.4013,-2.4013,-2.4027,-2.4044,-2.4061,-2.4082,-2.4099,-2.4135,-2.414,-2.4159,-2.4155,-2.4181,-2.4157,-2.4157,-2.4153,-2.4152,-2.4153,-2.4186,-2.4186,-2.4187,-2.4188,0,-2.3977,-2.3978,-2.3998,-2.4019,-2.4036,-2.4052,-2.4067,-2.4078,-2.4079,-2.4096,-2.4119,-2.4132,-2.4158,-2.4179,-2.4198,-2.4204,-2.4196,-2.4195,-2.4202,-2.4202,-2.42,-2.4201,-2.4122,-2.4193,-2.4193,-2.4192,-2.4192,-2.4192,-2.402,-2.404,-2.4055,-2.4077,-2.4089,-2.4103,-2.4122,-2.4128,-2.4147,-2.4169,-2.4168,-2.4193,-2.4206,-2.423,-2.4238,-2.4257,-2.4248,-2.4257,-2.4259,-2.4261,-2.4263,-2.4199,-2.4261,-2.4261,-2.426,-2.426,-2.426,0,-2.408,-2.4089,-2.411,-2.4132,-2.415,-2.4142,-2.4158,-2.4173,-2.4196,-2.4209,-2.4227,-2.4253,-2.4273,-2.428,-2.43,-2.4314,-2.431,-2.4319,-2.4317,-2.4319,-2.4271,-2.4263,-2.4321,-2.4321,-2.4321,-2.4321,-2.4321,-2.4321,-2.4113,-2.4145,-2.4148,-2.4186,-2.4194,-2.422,-2.423,-2.4243,-2.4253,-2.4283,-2.4301,-2.4306,-2.4316,-2.4337,-2.4355,-2.4356,-2.4363,-2.4373,-2.4373,-2.4328,-2.4322,-2.4316,-2.4308,-2.4375,-2.4375,-2.4419,-2.4419,-2.4419]}]]